TimeCDT,TemperatureF,Dew PointF,Humidity,Sea Level PressureIn,VisibilityMPH,Wind Direction,Wind SpeedMPH,Gust SpeedMPH,PrecipitationIn,Events,Conditions,WindDirDegrees,DateUTC
12:52 AM,62.1,57.0,84,30.05,10.0,ESE,3.5,-,N/A,,Clear,120,2013-09-04 05:52:00
1:52 AM,61.0,57.0,87,30.05,10.0,SE,4.6,-,N/A,,Clear,130,2013-09-04 06:52:00
2:52 AM,62.1,57.0,84,30.05,10.0,ESE,4.6,-,N/A,,Clear,110,2013-09-04 07:52:00
3:52 AM,62.1,57.0,84,30.06,10.0,ESE,4.6,-,N/A,,Clear,120,2013-09-04 08:52:00
4:52 AM,55.9,54.0,93,30.06,10.0,Calm,Calm,-,N/A,,Clear,0,2013-09-04 09:52:00
5:52 AM,57.9,54.0,87,30.07,10.0,Calm,Calm,-,N/A,,Clear,0,2013-09-04 10:52:00
6:52 AM,55.9,54.0,93,30.09,10.0,Calm,Calm,-,N/A,,Clear,0,2013-09-04 11:52:00
7:52 AM,63.0,60.1,90,30.11,10.0,ESE,3.5,-,N/A,,Clear,120,2013-09-04 12:52:00
8:52 AM,71.1,60.1,68,30.13,10.0,SE,3.5,-,N/A,,Clear,130,2013-09-04 13:52:00
9:52 AM,77.0,61.0,58,30.14,10.0,Calm,Calm,-,N/A,,Clear,0,2013-09-04 14:52:00
10:52 AM,82.9,59.0,44,30.15,10.0,Calm,Calm,-,N/A,,Clear,0,2013-09-04 15:52:00
11:52 AM,84.9,59.0,41,30.14,10.0,SSW,4.6,-,N/A,,Clear,210,2013-09-04 16:52:00
12:52 PM,86.0,57.0,37,30.13,10.0,Calm,Calm,-,N/A,,Clear,0,2013-09-04 17:52:00
1:52 PM,90.0,55.9,31,30.11,10.0,East,5.8,-,N/A,,Clear,100,2013-09-04 18:52:00
2:52 PM,89.1,57.0,34,30.10,10.0,Calm,Calm,-,N/A,,Clear,0,2013-09-04 19:52:00
3:52 PM,90.0,55.9,31,30.08,10.0,Calm,Calm,-,N/A,,Clear,0,2013-09-04 20:52:00
4:52 PM,88.0,57.9,36,30.06,10.0,ESE,5.8,-,N/A,,Clear,110,2013-09-04 21:52:00
5:52 PM,88.0,57.0,35,30.06,10.0,SE,5.8,-,N/A,,Clear,140,2013-09-04 22:52:00
6:52 PM,82.9,61.0,47,30.06,10.0,East,3.5,-,N/A,,Clear,100,2013-09-04 23:52:00
7:52 PM,75.9,62.1,62,30.07,10.0,East,3.5,-,N/A,,Clear,90,2013-09-05 00:52:00
8:52 PM,75.9,60.1,58,30.07,10.0,East,4.6,-,N/A,,Clear,90,2013-09-05 01:52:00
9:52 PM,75.9,61.0,60,30.09,10.0,East,8.1,-,N/A,,Clear,90,2013-09-05 02:52:00
10:52 PM,73.0,61.0,66,30.10,10.0,East,4.6,-,N/A,,Clear,90,2013-09-05 03:52:00
11:52 PM,70.0,61.0,73,30.11,10.0,East,4.6,-,N/A,,Clear,100,2013-09-05 04:52:00